STARLINK-5068, 55423

Orbit data source: Space-Track

STARLINK-5068, 55423 is a payload satellite owned by SpaceX/Seattle (US) in LEO that was launched on Tue, 31 Jan 2023 UTC via an FALCON 9 launch vehicle from the Air Force Western Test Range (AFWTR). Payload-class satellites include a variety of spacecraft equipped with specific instruments for various scientific and technological missions. These include communications satellites like Starlink; space stations such as the ISS; scientific satellites like the Hubble; Earth observation satellites from companies like Planet Labs, Umbra, and HawkEye 360; GPS; miniature CubeSats for education and research; and military/defense satellites.

Loading next visibility...
Identifier
55423, 2023-014AJ
Orbit
LEO
Country
Flag of USUS
Related business
Manufacturer
SpaceX/Seattle
Mission
Operational Commercial Communications
Bus & Motor
STARLINK, Unknown motor
Mass
305 kg wet, ~290 kg dry
Launch date (UTC)
2023-01-31 (3 years ago)
Launch vehicle
FALCON 9
Launch site
Air Force Western Test Range (AFWTR)
Object type
Payload
Rocket body
Debris
Shape & HBR
Box + 1 Pan, 10.1 m
Radar Cross Section
13.562 m², Large (>1 m²)

Expand to show TLE details & history
Last TLE update: 2 days ago

TLE from 2 days ago
0 STARLINK-5068
1 55423U 23014AJ  26171.39045250 -.00001763  00000-0 -13997-3 0  9995
2 55423  69.9990 185.5924 0003046 266.0889  93.9921 14.98338740186947
Epoch: 2026-06-20T09:22Z
TLE epoch observation values (Epoch: 2026-06-20T09:22:15.096Z)
Latitude
-0.00014°
Longitude
136.42369°
Altitude
574.601 km
Speed
7.574 km/s
True Right ascension
12h 22m 22s
True Declination
0° 00' 00"
Sunlit
Object was in daylight at epoch
Visualization orbit readout
Latitude
Unknown
Longitude
Unknown
Altitude
Unknown
Speed
Unknown
Apparent Right ascension
Unknown
Apparent Declination
Unknown
Sunlit
N/A
Visualization observer readout
Local Sidereal Time
21:28:55
Azimuth
Unknown
Elevation
Unknown
Doppler factor
Unknown
Orbital elements
Apogee altitude
572.094 km
Perigee altitude
567.861 km
Semi-major axis
6,948.114 km
Eccentricity
0.0003
Inclination
69.999°
RAAN
185.5924°
Arg. of periapsis
266.0889°
True anomaly
94.02692°
Mean anomaly
93.9921°
Eccentric anomaly
94.00951°
Mean motion
3.74751 °/min
Orbital period
96.06 mins
BSTAR
-0.00013997
Loading maneuver chart data...
Computing Atmospheric mass density...

Documentation

Showing up to 5 results
|